Погода в Самарканде

Погода в Самарканде : погода сейчас, прогноз погоды и архив. Всё, что Вы хотите узнать о погоде в Самарканде!

Поиск расширенной информации на нашем сайте:

Другие новости

Новости СМИ2

Главная страница сайта

Новости сайта

02.10.2013

Напоминаем, что на нашем новом сайте вы можете получить высокодетализированные прогнозы погоды по пунктам России, СНГ и мира (включающие важные для авиации метеовеличины, такие как направление и скорость ветра, видимость, явления погоды, количество и форма облачности, нижняя и верхняя граница облачности), а также ознакомиться с разнообразными материалами по авиационной метеорологии и подборкой полезных ссылок на эту тему.

Сайт Метеоцентр.Азия посвящён разработке технологий оптимизации авиаметеорологического обслуживания, включая проектирование и перспективное создание нескольких автоматизированных авиаметеорологических систем:
- система выпуска высокодетальных прогностических карт явлений погоды для нижнего воздушного пространства по России и ближнему зарубежью;
- система верификации прогнозов TAF (выпускаемых синоптиками официальных АМСГ РФ и ближнего зарубежья) и AUTOTAF (выпускаемых сайтом Метеоцентр.Азия) - выявление ошибок, онлайн-сопоставление с фактической погодой METAR, автоматическое внесение коррективов в прогнозы при резком отклонении фактической погоды от прогноза, подсчёт оправдываемости прогнозов по элементам и в целом;
- система обработки, анализа и отображения авиаметеорологической информации для применения провайдерами метеорологической информации.


Погода в Самарканде - сегодня

Время (UTC), дата Ветер
(°,м/с) 
Видим.   Явления Облачность Т
(°С)
Тd
(°С)
f(%) Тe
(°С)
Pmin
(гПа)
dP
(гПа)
Po
(мм)
O2
(г/м3)
Тmin Tmax R s Состояние
почвы
21 25.05.17 090 (В) н/о    ясно 
+21.7 +11.8 53 +27  1012.2  699  259           
00 26.05.17 090 (В) 20000 м    ясно 
+19.6 +12.5 64 +27  1012.6  -0.1  699  260           
03 26.05.17 090 (В) 20000 м    3/0 верхняя 
[Ci fib]
+24.6 +11.3 43 +29  1012.6  1.2  700  256           
06 26.05.17 160 (Ю) 20000 м    1/0 верхняя 
[Ci fib]
+29.5 +10.6 31 +33  1010.7  -0.4  699  252  +18.6         
09 26.05.17 070 (В) 20000 м    ясно 
+32 +9.2 24 +33  1010  -0.1  699  251           
12 26.05.17 090 (В) 20000 м    3/3 600 м кучево-дожд., верхняя 
[Cb calv|Ci]
+31.7 +9.5 25 +34  1010  -0.1  699  251           
18 26.05.17 090 (В) н/о    ясно 
+24.9 +11.8 44 +30  1011.3  0.3  699  256    +32.7       
21 26.05.17 090 (В) н/о    ясно 
+20.9 +12 57 +26  1011.3  -1.1  698  259           
00 27.05.17 090 (В) 20000 м    ясно 
+19.4 +9.7 53 +23  1011.3  -0.4  698  261           
03 27.05.17 090 (В) 20000 м    1/0 средняя 
[Ac cast]
+26.5 +7.4 30 +27  1010  0.5  698  255           
06 27.05.17 тихо ()   20000 м    ясно 
+32.3 +8.2 22 +33  1008.7  -0.3  698  250  +19         
09 27.05.17 270 (З) 20000 м    3/3 1000 м 
[Cu hum]
+34.4 +8.6 21 +35  1007.4  -0.7  698  248           
12 27.05.17 270 (З) 20000 м    1/1 1000 м 
[Cu med, cong]
+34 +8 20 +34  1006.8  -0.7  697  248           
18 27.05.17 090 (В) н/о    3/0 средняя, верхняя 
[Ac cast|Ci]
+24.9 +12.2 45 +31  1008.7  0.1  697  255    +35.1       
21 27.05.17 110 (В) н/о    ясно 
+23.1 +10.6 45 +27  1008.5  -0.7  697  257           
00 28.05.17 110 (В) 20000 м    ясно 
+23 +4.3 30 +23  1009.7  0.9  697  258           
03 28.05.17 180 (Ю) 20000 м    ясно 
+23.9 +6.5 33 +24  1010  0.6  698  257           
06 28.05.17 070 (В) 20000 м    3/3 1000 м 
[Cu hum]
+28.9 +7.4 26 +29  1008.6  698  253  +22         
09 28.05.17 090 (В) 20000 м    3/3 1000 м 
[Cu med, cong]
+31.9 +10.2 26 +35  1007.1  -0.7  697  250           
12 28.05.17 110 (В) 20000 м    3/3 1000 м 
[Cu med, cong]
+32 +10.3 26 +35  1006.8  -0.1  697  250           
15 28.05.17 090 (В) 20000 м    ясно 
+28.6 +12.4 37 +35  1007.4  -0.5  697  252    +32.5       
18 28.05.17 090 (В) н/о    ясно 
+24.9   1008.3  -0.1  697      +32.5       
21 28.05.17 090 (В) н/о    ясно 
+21.9 +8.2 41 +22  1008.8  -0.4  696  258           
00 29.05.17 110 (В) 20000 м    ясно 
+25.7 -0.2 18 +26  1006.9  -0.9  696  256           
03 29.05.17 110 (В) 20000 м    1/0 верхняя 
[Ci]
+27.9 +1.5 18 +28  1006.2  -0.1  696  254           
Время (UTC), дата Ветер
(°,м/с) 
Видим.   Явления Облачность Т
(°С)
Тd
(°С)
f(%) Тe
(°С)
Pmin
(гПа)
dP
(гПа)
Po
(мм)
O2
(г/м3)
Тmin Tmax R s Состояние
почвы

Для получения пояснительной информации подведите курсор к названию столбца.

ПОГОДА в Самарканде - архив

Всё, что Вы хотите узнать о погоде в Самарканде - удобно и подробно!

Выберите нужную дату (начиная с 1 января 2015* года) и нажмите кнопку "Найти".
Будут отображены архивные сводки погоды по пункту Самарканд, начиная с указанной даты.


Отображать данные в формате CSV (для использования в таблицах Excel)


Внимание! Наш архив погоды предназначен исключительно для личного некоммерческого использования в познавательных целях. Если Вам необходимы официальные справки о состоянии погоды (для производственных, юридических, коммерческих и т.п. целей), обращайтесь в органы Росгидромета.

*Примечание: данная дата относится к архиву по метеостанциям СССР (Россия, СНГ, Балтия).
Архив по метеостанциям Зарубежной Европы и Азии (кроме Китая) хранится 10 дней, по другим регионам земного шара (Китай, Африка, Америка, Австралия, Океания) - 1 день.

Самарканд - район местоположения метеостанции


Название, широта, долгота, высота метеостанции:
Самарканд (город) 39.6°ш. 66.9°д. 724 м над ур. моря [Узбекистан]

Дополнительная информация

В oтличие oт бoльшинства пoгoдных сайтoв мы публикуем пoдрoбную метеoинфoрмацию в детальнoм прoфессиoнальнoм фoрмате.

Характеристики температуры и влажнoсти вoздуха измеряются на высoте 2 м в тени вдали oт зданий и деревьев.
Скoрoсть ветра измеряется на высoте 10 м (на урoвне рoста челoвека скoрoсть ветра ниже в 1.5-2 раза). Если метеoстанция нахoдится в гoрoде или в лесу, тo скoрoсть ветра занижена на 2-4 м/с пo сравнению с oткрытым местoм. Скoрoсть ветра над акватoриями крупных рек и oзёр, а также на вершинах хoлмoв на 2-5 м/с выше, чем в oбычных услoвиях.
Атмoсфернoе давление в разных тoчках местнoсти мoжет значительнo oтличаться oт давления на метеoстанции, в зависимoсти oт услoвий рельефа (при пoдъёме на 10 м давление пoнижается примернo на 1 мм рт.ст.).